This demonstration page uses our WeatherBlox Daily Observations layout. Learn more.

Hourly Observations for January 4, 2019

Temp ( °F °C ) Dew Point ( °F °C ) Humidity (%) Winds ( mph kmh ) Pressure ( in mb ) Visibility ( mi km ) Precip ( " mm )
12:15 am 00:15 Clear 30 -1 30 -1 100 100 Calm 30.09 1019 10 16.09344 0 0
12:35 am 00:35 Clear 30 -1 30 -1 100 100 W 3 6 30.09 1019 10 16.09344 0 0
12:55 am 00:55 Clear 32 0 32 0 100 100 SW 5 7 30.09 1019 10 16.09344 0 0
1:15 am 01:15 Clear 32 0 32 0 100 100 SW 5 7 30.09 1019 10 16.09344 0 0
1:35 am 01:35 Clear 30 -1 30 -1 100 100 W 3 6 30.09 1019 10 16.09344 0 0
1:55 am 01:55 Clear 32 0 32 0 100 100 Calm 30.09 1019 10 16.09344 0 0
2:15 am 02:15 Clear 32 0 32 0 100 100 Calm 30.09 1019 10 16.09344 0 0
2:35 am 02:35 Clear 32 0 32 0 100 100 WSW 3 6 30.09 1019 10 16.09344 0 0
2:55 am 02:55 Clear 30 -1 30 -1 100 100 Calm 30.09 1019 10 16.09344 0 0
3:15 am 03:15 Clear 30 -1 30 -1 100 100 Calm 30.09 1019 10 16.09344 0 0
3:35 am 03:35 Clear 30 -1 30 -1 100 100 W 5 7 30.09 1019 10 16.09344 0 0
3:55 am 03:55 Clear 30 -1 30 -1 100 100 WSW 6 9 30.09 1019 10 16.09344 0 0
4:15 am 04:15 Clear 30 -1 30 -1 100 100 WSW 6 9 30.09 1019 10 16.09344 0 0
4:35 am 04:35 Clear 30 -1 30 -1 100 100 WSW 5 7 30.09 1019 10 16.09344 0 0
4:55 am 04:55 Clear 32 0 32 0 100 100 WSW 5 7 30.09 1019 10 16.09344 0 0
5:15 am 05:15 Clear 32 0 32 0 100 100 WSW 5 7 30.09 1019 10 16.09344 0 0
5:35 am 05:35 Clear 32 0 32 0 100 100 WSW 3 6 30.06 1018 10 16.09344 0 0
5:55 am 05:55 Clear 32 0 32 0 100 100 SW 3 6 30.06 1018 10 16.09344 0 0
6:15 am 06:15 Clear 32 0 32 0 100 100 Calm 30.06 1018 10 16.09344 0 0
6:35 am 06:35 Clear 32 0 32 0 100 100 Calm 30.06 1018 10 16.09344 0 0
6:55 am 06:55 Clear 32 0 32 0 100 100 Calm 30.06 1018 10 16.09344 0 0
7:15 am 07:15 Clear 32 0 32 0 100 100 Calm 30.06 1018 10 16.09344 0 0
7:35 am 07:35 Sunny 32 0 32 0 100 100 Calm 30.06 1018 10 16.09344 0 0
7:55 am 07:55 Sunny 32 0 32 0 100 100 S 3 6 30.09 1019 10 16.09344 0 0
8:15 am 08:15 Sunny 32 0 32 0 100 100 Calm 30.09 1019 10 16.09344 0 0
8:35 am 08:35 Mostly Cloudy 32 0 32 0 100 100 Calm 30.09 1019 10 16.09344 0 0
8:55 am 08:55 Partly Cloudy 32 0 32 0 100 100 Calm 30.09 1019 10 16.09344 0 0
9:15 am 09:15 Sunny 34 1 32 0 93 93 Calm 30.09 1019 10 16.09344 0 0
9:35 am 09:35 Partly Cloudy 34 1 34 1 100 100 Calm 30.09 1019 10 16.09344 0 0
9:55 am 09:55 Sunny 36 2 34 1 93 93 Calm 30.09 1019 10 16.09344 0 0
10:15 am 10:15 Partly Cloudy 37 3 34 1 87 87 Calm 30.06 1018 10 16.09344 0 0
10:35 am 10:35 Mostly Cloudy 37 3 36 2 93 93 Calm 30.06 1018 10 16.09344 0 0
10:55 am 10:55 Partly Cloudy 41 5 37 3 87 87 Calm 30.06 1018 10 16.09344 0 0
11:15 am 11:15 Sunny 41 5 37 3 87 87 S 3 6 30.03 1017 10 16.09344 0 0
11:35 am 11:35 Sunny 43 6 41 5 93 93 S 3 6 30.03 1017 10 16.09344 0 0
11:55 am 11:55 Sunny 43 6 41 5 93 93 S 3 6 30 1016 10 16.09344 0 0
12:15 pm 12:15 Sunny 43 6 41 5 93 93 S 3 6 30 1016 10 16.09344 0 0
12:35 pm 12:35 Sunny 45 7 41 5 87 87 S 6 9 29.97 1015 10 16.09344 0 0
12:55 pm 12:55 Mostly Cloudy 45 7 41 5 87 87 S 9 15 29.97 1015 10 16.09344 0 0
1:15 pm 13:15 Cloudy 45 7 41 5 87 87 S 7 11 29.97 1015 10 16.09344 0 0
1:35 pm 13:35 Partly Cloudy 45 7 43 6 93 93 S 7 11 29.97 1015 10 16.09344 0 0
1:55 pm 13:55 Sunny 45 7 43 6 93 93 SSE 9 15 29.94 1014 10 16.09344 0 0
2:15 pm 14:15 Sunny 45 7 43 6 93 93 S 12 19 29.94 1014 10 16.09344 0 0
2:35 pm 14:35 Partly Cloudy 45 7 43 6 93 93 S 10 17 29.94 1014 10 16.09344 0 0
2:55 pm 14:55 Mostly Cloudy 45 7 43 6 93 93 SSW 12 19 29.94 1014 10 16.09344 0 0
3:15 pm 15:15 Cloudy 45 7 43 6 93 93 S 9 15 29.94 1014 10 16.09344 0 0
3:35 pm 15:35 Cloudy 45 7 43 6 93 93 S 7 11 29.94 1014 10 16.09344 0 0
3:55 pm 15:55 Cloudy 45 7 43 6 93 93 SSE 6 9 29.91 1013 10 16.09344 0 0
4:15 pm 16:15 Cloudy 45 7 43 6 93 93 SSE 7 11 29.91 1013 10 16.09344 0 0
4:35 pm 16:35 Cloudy 45 7 43 6 93 93 SSE 6 9 29.91 1013 10 16.09344 0 0
4:55 pm 16:55 Cloudy 45 7 43 6 93 93 SE 5 7 29.88 1012 10 16.09344 0 0
5:15 pm 17:15 Cloudy with Light Rain 45 7 43 6 93 93 SSE 3 6 29.88 1012 10 16.09344 0 0
5:35 pm 17:35 Cloudy 45 7 43 6 93 93 SSE 3 6 29.88 1012 10 16.09344 0 0
5:55 pm 17:55 Cloudy 45 7 43 6 93 93 SSE 5 7 29.85 1011 10 16.09344 0 0
6:15 pm 18:15 Cloudy 45 7 43 6 93 93 SSE 3 6 29.85 1011 10 16.09344 0 0
6:35 pm 18:35 Cloudy 45 7 43 6 93 93 SSE 5 7 29.85 1011 10 16.09344 0 0
6:55 pm 18:55 Cloudy 45 7 43 6 93 93 SE 6 9 29.85 1011 10 16.09344 0 0
7:15 pm 19:15 Cloudy 45 7 45 7 100 100 SE 3 6 29.83 1010 10 16.09344 0 0
7:35 pm 19:35 Cloudy 45 7 45 7 100 100 ESE 3 6 29.83 1010 10 16.09344 0 0
7:55 pm 19:55 Cloudy with Light Drizzle 45 7 45 7 100 100 Calm 29.83 1010 5 8.04672 0 0
8:15 pm 20:15 Cloudy with Mist and Fog 45 7 45 7 100 100 Calm 29.83 1010 5 8.04672 0 0
8:35 pm 20:35 Cloudy with Mist and Fog 45 7 45 7 100 100 Calm 29.8 1009 2.5 4.02336 0 0
8:55 pm 20:55 Cloudy with Mist and Fog 43 6 43 6 100 100 ENE 3 6 29.8 1009 2.5 4.02336 0 0
9:15 pm 21:15 Cloudy with Mist and Fog 43 6 43 6 100 100 NE 5 7 29.8 1009 3 4.828032 0 0
9:35 pm 21:35 Cloudy with Mist and Fog 43 6 43 6 100 100 E 3 6 29.77 1008 4 6.437376 0 0
9:55 pm 21:55 Cloudy with Mist and Fog 43 6 43 6 100 100 E 5 7 29.77 1008 2.5 4.02336 0 0
10:15 pm 22:15 Cloudy with Mist and Fog 43 6 43 6 100 100 ENE 6 9 29.74 1007 1.75 2.816352 0 0
10:35 pm 22:35 Cloudy with Mist and Fog 43 6 43 6 100 100 Calm 29.74 1007 2 3.218688 0 0
10:55 pm 22:55 Cloudy with Mist and Fog 43 6 43 6 100 100 NE 6 9 29.71 1006 2 3.218688 0 0
11:15 pm 23:15 Cloudy with Mist and Fog 43 6 43 6 100 100 ENE 8 13 29.68 1005 1.75 2.816352 0 0
11:35 pm 23:35 Cloudy with Mist and Fog 43 6 43 6 100 100 NE 5 7 29.68 1005 2.5 4.02336 0 0
11:55 pm 23:55 Cloudy with Light Rain 43 6 43 6 100 100 NE 7 11 29.68 1005 2.5 4.02336 0 0

Powered by AerisWeather